This is the latest recevied weather packets stored in our database for station/object AC2VK-1. If no packets are shown the sender has not sent any weather packets the latest 10 day(s).
| Time | Temp. | Humidity | Pressure | Rain* | Wind** | Luminosity | Snow |
|---|---|---|---|---|---|---|---|
| 1777220383 | 19.44° C | 82% | 1017.1 hPa | 0 mm | - | - | - |
| 1777219783 | 19.44° C | 84% | 1017 hPa | 0 mm | - | - | - |
| 1777219183 | 18.89° C | 86% | 1017 hPa | 0 mm | - | - | - |
| 1777218583 | 17.78° C | 88% | 1016.9 hPa | 0 mm | - | - | - |
| 1777217983 | 17.22° C | 92% | 1016.9 hPa | 0 mm | - | - | - |
| 1777217383 | 16.67° C | 95% | 1016.7 hPa | 0 mm | - | - | - |
| 1777216783 | 16.67° C | 97% | 1016.6 hPa | 0 mm | - | - | - |
| 1777216183 | 16.11° C | 96% | 1016.6 hPa | 0 mm | - | - | - |
| 1777215583 | 16.11° C | 97% | 1016.6 hPa | 0 mm | - | - | - |
| 1777214983 | 15.56° C | 97% | 1016.6 hPa | 0 mm | - | - | - |
| 1777214383 | 16.11° C | 97% | 1016.5 hPa | 0 mm | - | - | - |
| 1777213783 | 16.11° C | 97% | 1016.4 hPa | 0 mm | - | - | - |
| 1777213183 | 15.56° C | 97% | 1016.4 hPa | 0 mm | - | - | - |
| 1777212583 | 15.56° C | 97% | 1016.5 hPa | 0 mm | - | - | - |
| 1777211983 | 15.56° C | 97% | 1016.4 hPa | 0 mm | - | - | - |
| 1777211383 | 15.56° C | 97% | 1016.2 hPa | 0 mm | - | - | - |
| 1777210783 | 16.11° C | 97% | 1016.1 hPa | 0 mm | - | - | - |
| 1777210183 | 15.56° C | 98% | 1016.1 hPa | 0 mm | - | - | - |
| 1777209583 | 15.56° C | 97% | 1015.8 hPa | 0 mm | - | - | - |
| 1777208983 | 15.56° C | 98% | 1015.8 hPa | 0 mm | - | - | - |
| 1777208383 | 15.56° C | 98% | 1015.6 hPa | 0 mm | - | - | - |
| 1777207783 | 15.56° C | 97% | 1015.7 hPa | 0 mm | - | - | - |
| 1777207183 | 15° C | 97% | 1015.9 hPa | 0 mm | - | - | - |
| 1777206583 | 15° C | 97% | 1015.9 hPa | 0 mm | - | - | - |
| 1777205983 | 15° C | 97% | 1015.9 hPa | 0 mm | - | - | - |
* Rain latest hour (hover to see other rain measurements)
** Current wind speed in m/s (hover to see current wind gust speed)